Regional Weather Roundup
Issued by NWS Goodland, KS

Home | Current Version | Previous Version | Graphics & Text | Print | Product List | Glossary On
Versions: 1 2 3 4 5 6 7 8 9 10 11 12 13 14 15 16 17 18 19 20 21 22 23 24 25 26 27 28 29 30 31 32 33 34 35 36 37 38 39 40 41 42 43 44 45 46 47 48 49 50
838
ASUS43 KGLD 220308
RWRGLD

GOODLAND FORECAST AREA HOURLY WEATHER ROUNDUP
NATIONAL WEATHER SERVICE GOODLAND KS
900 PM MDT SAT OCT 21 2017

...OFFICIAL OBSERVATIONS...

CITY           SKY/WX    TMP DP  RH WIND       PRES   REMARKS
GOODLAND KS    CLEAR     41  18  39 NW8       30.08R
HILL CITY KS   CLEAR     40  35  83 CALM      30.04R
IMPERIAL NEB   CLEAR     46  20  35 NW12      30.06R
MCCOOK NEB     CLEAR     46  24  42 W6        30.04R
AKRON CO       CLEAR     41  15  35 NW10      30.12S
BURLINGTON CO  CLEAR     34  15  46 W8        30.10R
LIMON CO       CLEAR     30  12  47 CALM      30.16R
$$

...UNOFFICIAL OBSERVATIONS...

CITY           SKY/WX    TMP DP  RH WIND       PRES   REMARKS
COLBY KS       CLEAR     41  27  56 NW8       30.08R
LENORA KS        N/A     44  32  63 NW7         N/A
NORTON KS      CLEAR     41  27  56 NW5       30.03R
SHARON SPRINGS   N/A     40  19  42 NW8         N/A
TRIBUNE KS     CLEAR     43  19  39 NW10      30.10R
TRENTON NEB      N/A     44  32  63 NW7         N/A
KIT CARSON CO    N/A     34  13  42 CALM        N/A
YUMA CO        FAIR      37  18  44 W9        30.11R
$$




USA.gov is the U.S. government's official web portal to all federal, state and local government web resources and services.